Location: Unspecified
(43.4680°N, 87.1740°E)
Time: 19:58:46
(UTC+00:00)

Cosmos 1633 - Pass Details

Date: 17 April 2021
Orbit: 460 x 478 km, 82.5° (Epoch: 12 May)

Event Time Altitude Azimuth Distance (km) Brightness Sun altitude
Rises 15:12:00 0° 354° (N) 2,539 6.9 -22.3°
Reaches altitude 10° 15:14:08 10° 358° (N) 1,652 5.8 -22.6°
Enters shadow 15:16:46 43° 19° (NNE) 673 3.3 -22.9°
